User: anonymous   Login
Location: Unspecified
(0.0000°N, 0.0000°E)
Time: 09:27:04
(UTC+01:00)
Language:

Fermi - Orbit

View from above orbital plane
View from above orbital plane
View from above satellite
View from above satellite

Ground track
Ground track

The orbit data is extracted from the following two-line orbital elements,

1 33053U 08029A   19017.16698587  .00000402  00000-0  62053-5 0  9998
2 33053  25.5840  22.6362 0012558 139.5352 220.6118 15.11173183584996
Epoch (UTC): 17 January 2019 04:00:27
Eccentricity: 0.0012558
inclination: 25.5840°
perigee height: 524 km
apogee height: 541 km
right ascension of ascending node: 22.6362°
argument of perigee: 139.5352°
revolutions per day: 15.11173183
mean anomaly at epoch: 220.6118°
orbit number at epoch: 58499

The dashed part of the orbit path shows where the satellite is in the earth's shadow,  

DLR